STARLINK-11561, 62908

Orbit data source: Space-Track

STARLINK-11561, 62908 is a payload satellite owned by SpaceX/Seattle (US) in LEO that was launched on Sat, 08 Feb 2025 UTC via an FALCON 9 launch vehicle from the Air Force Eastern Test Range (AFETR). Payload-class satellites include a variety of spacecraft equipped with specific instruments for various scientific and technological missions. These include communications satellites like Starlink; space stations such as the ISS; scientific satellites like the Hubble; Earth observation satellites from companies like Planet Labs, Umbra, and HawkEye 360; GPS; miniature CubeSats for education and research; and military/defense satellites.

Loading next visibility...
Identifier
62908, 2025-027B
Orbit
LEO
Last TLE update
2 days ago
Origin
Manufacturer
SpaceX/Seattle
Mission
Operational Commercial Communications
Bus & Motor
STARLINK V2M, Unknown motor
Mass
730 kg wet, ~700 kg dry
Launch date (UTC)
2025-02-08 (3 months ago)
Launch vehicle
FALCON 9
Launch site
Air Force Eastern Test Range (AFETR)
Object type
Payload
Rocket body
Debris
Shape & HBR
Box + 2 Pan, 29 m
Radar Cross Section
36.964 m², Large (>1 m²)

Expand to show TLE details & history

TLE from 2 days ago
0 STARLINK-11561
1 62908U 25027B   25118.94405586 -.00000008  00000-0  34296-5 0  9997
2 62908  43.0004  84.5985 0001123 238.4669 121.6089 15.70830583 13654
Epoch: 2025-04-28T22:39Z
Definitive object data (Epoch: 2025-04-28T22:39:26.426Z)
Latitude
-0.00001°
Longitude
-112.41244°
Altitude
356.69 km
Speed
7.697 km/s
True Right ascension
05h 38m 23s
True Declination
0° 00' 00"
Sunlit
Object was in daylight at TLE epoch
Visualization TLE readout
Latitude
10.41687°
Longitude
-110.32622°
Altitude
355.982 km
Speed
7.698 km/s
Apparent Right ascension
06h 15m 41s
Apparent Declination
-14° 05' 23"
Sunlit
Object is in daylight
Visualization observer readout
Local Sidereal Time
18:54:54
Azimuth
21.172° NNE
Elevation
-62.779°
Doppler factor
1
Orbital elements
Apogee altitude
359.26 km
Perigee altitude
357.747 km
Semi-major axis
6,736.64 km
Eccentricity
0.0001123
Inclination
43.0004°
RAAN
84.5985°
Arg. of periapsis
238.4669°
True anomaly
121.61986°
Mean anomaly
121.6089°
Eccentric anomaly
121.61438°
Mean motion
3.92535 °/min
BSTAR
0.0000034296
Orbital period
91.71 mins
Loading maneuver chart data...
Loading SW <> Apogee altitude chart data...
Loading historical data...
Loading historical data...
Loading historical data...
Loading historical data...
Loading historical data...
Loading historical data...
Loading historical data...

STARLINK-11561 Visibility forecast

Observer location: undefined°, undefined°

Span
Click to sort rows by Start time (UTC) header in descending order
Start Az.
Max El. time (UTC)
Max El. Az.
Max El.
End time (UTC)
End Az.
4 mins2025-05-01 01:16:45.350Z246.26° WSW2025-05-01 01:18:45.350Z86.152° E41.945°2025-05-01 01:20:45.350Z73.213° E
4 mins2025-05-01 04:29:45.350Z299.39° NW2025-05-01 04:30:45.350Z344.003° N42.313°2025-05-01 04:33:45.350Z98.992° ESE
|